EZY66 LPPT-LPMA

Flight info

Callsign EZY66
Flight time N/A
Altitude 35000
Route ULVOT DCT GALPA DCT RAKUN
Aircraft A20N/M-SDE2E3FGHIRWXY/LB1

Departure

Time 2026-05-07 17:27
Airport Lisbon Humberto Delgado Airport (LPPT)

Arrival

Time N/A
Airport Cristiano Ronaldo International Airport (LPMA)
Time Latitude Longitude Altitude Speed Heading
2026-05-07 16:58 38.76935 -9.13066 354 ft 0 kts 79°
2026-05-07 17:15 38.76932 -9.13082 356 ft 2 kts 82°
2026-05-07 17:16 38.76930 -9.13103 356 ft 2 kts 83°
2026-05-07 17:16 38.76929 -9.13124 353 ft 2 kts 91°
2026-05-07 17:16 38.76930 -9.13138 354 ft 2 kts 104°
2026-05-07 17:16 38.76938 -9.13156 354 ft 2 kts 153°
2026-05-07 17:17 38.76946 -9.13160 353 ft 0 kts 161°
2026-05-07 17:18 38.76936 -9.13156 354 ft 7 kts 161°
2026-05-07 17:18 38.76862 -9.13132 347 ft 14 kts 168°
2026-05-07 17:18 38.76812 -9.13120 353 ft 8 kts 175°
2026-05-07 17:19 38.76778 -9.13172 347 ft 9 kts 257°
2026-05-07 17:19 38.76765 -9.13263 347 ft 12 kts 259°
2026-05-07 17:19 38.76749 -9.13363 347 ft 10 kts 258°
2026-05-07 17:19 38.76697 -9.13426 355 ft 12 kts 212°
2026-05-07 17:20 38.76649 -9.13512 349 ft 13 kts 257°
2026-05-07 17:20 38.76628 -9.13639 352 ft 16 kts 258°
2026-05-07 17:20 38.76605 -9.13784 347 ft 18 kts 258°
2026-05-07 17:20 38.76587 -9.13894 346 ft 9 kts 257°
2026-05-07 17:21 38.76572 -9.13978 356 ft 8 kts 256°
2026-05-07 17:21 38.76539 -9.14039 348 ft 10 kts 231°
2026-05-07 17:21 38.76497 -9.14118 353 ft 12 kts 248°
2026-05-07 17:21 38.76512 -9.14225 347 ft 13 kts 289°
2026-05-07 17:22 38.76535 -9.14302 351 ft 0 kts 294°
2026-05-07 17:23 38.76536 -9.14305 351 ft 0 kts 294°
2026-05-07 17:25 38.76542 -9.14321 346 ft 13 kts 294°
2026-05-07 17:25 38.76636 -9.14389 338 ft 15 kts 29°
2026-05-07 17:25 38.76659 -9.14378 339 ft 0 kts 20°
2026-05-07 17:26 38.76796 -9.14305 348 ft 61 kts 22°
2026-05-07 17:26 38.77447 -9.13960 351 ft 137 kts 22°
2026-05-07 17:27 38.78510 -9.13397 476 ft 186 kts 22°
2026-05-07 17:27 38.79804 -9.12647 813 ft 223 kts 26°
2026-05-07 17:27 38.81228 -9.11553 1323 ft 253 kts 35°
2026-05-07 17:27 38.82677 -9.10258 2478 ft 251 kts 30°
2026-05-07 17:28 38.84235 -9.09162 3386 ft 261 kts 26°
2026-05-07 17:28 38.85866 -9.08090 4300 ft 265 kts 26°
2026-05-07 17:28 38.87363 -9.06695 5224 ft 270 kts 49°
2026-05-07 17:28 38.88237 -9.04558 6158 ft 275 kts 77°
2026-05-07 17:29 38.88268 -9.02104 7074 ft 278 kts 104°
2026-05-07 17:29 38.87498 -8.99816 7973 ft 282 kts 121°
2026-05-07 17:29 38.86236 -8.97898 8822 ft 284 kts 144°
2026-05-07 17:29 38.84451 -8.96829 9668 ft 287 kts 169°
2026-05-07 17:30 38.82476 -8.96770 10416 ft 293 kts 192°
2026-05-07 17:30 38.80478 -8.97639 10741 ft 315 kts 204°
2026-05-07 17:30 38.78395 -8.98794 11071 ft 335 kts 205°
2026-05-07 17:30 38.76242 -9.00008 11804 ft 340 kts 204°
2026-05-07 17:31 38.74059 -9.01219 12592 ft 344 kts 204°
2026-05-07 17:31 38.71844 -9.02425 13348 ft 348 kts 204°
2026-05-07 17:31 38.69593 -9.03636 14083 ft 352 kts 203°
2026-05-07 17:31 38.67319 -9.04851 14808 ft 356 kts 203°
2026-05-07 17:32 38.65022 -9.06076 15503 ft 360 kts 203°
2026-05-07 17:32 38.62698 -9.07315 16179 ft 363 kts 203°
2026-05-07 17:32 38.60354 -9.08564 16843 ft 367 kts 203°
2026-05-07 17:32 38.57983 -9.09827 17487 ft 371 kts 203°
2026-05-07 17:33 38.55587 -9.11102 18129 ft 375 kts 203°
2026-05-07 17:33 38.53166 -9.12391 18755 ft 378 kts 203°
2026-05-07 17:33 38.50728 -9.13688 19364 ft 382 kts 203°
2026-05-07 17:33 38.48264 -9.14997 19954 ft 385 kts 203°
2026-05-07 17:34 38.45780 -9.16317 20529 ft 389 kts 203°
2026-05-07 17:34 38.43279 -9.17701 21085 ft 393 kts 207°
2026-05-07 17:34 38.40939 -9.19421 21646 ft 395 kts 214°
2026-05-07 17:34 38.38731 -9.21515 22192 ft 397 kts 218°
2026-05-07 17:35 38.36740 -9.23967 22698 ft 400 kts 230°
2026-05-07 17:35 38.34923 -9.26683 23207 ft 403 kts 230°
2026-05-07 17:35 38.33102 -9.29422 23720 ft 407 kts 230°
2026-05-07 17:35 38.31268 -9.32183 24200 ft 410 kts 230°
2026-05-07 17:36 38.29422 -9.34958 24681 ft 413 kts 230°
2026-05-07 17:36 38.27557 -9.37758 25141 ft 416 kts 230°
2026-05-07 17:36 38.25677 -9.40575 25590 ft 419 kts 230°
2026-05-07 17:36 38.23789 -9.43403 26019 ft 422 kts 230°
2026-05-07 17:37 38.21881 -9.46256 26440 ft 424 kts 230°
2026-05-07 17:37 38.19961 -9.49125 26846 ft 427 kts 230°
2026-05-07 17:37 38.18030 -9.52010 27240 ft 430 kts 230°
2026-05-07 17:37 38.16105 -9.54881 27614 ft 432 kts 230°
2026-05-07 17:38 38.14152 -9.57793 27977 ft 435 kts 230°
2026-05-07 17:38 38.12184 -9.60724 28329 ft 437 kts 230°
2026-05-07 17:38 38.10206 -9.63666 28668 ft 439 kts 230°
2026-05-07 17:38 38.08208 -9.66634 28996 ft 442 kts 230°
2026-05-07 17:39 38.06212 -9.69595 29310 ft 444 kts 230°
2026-05-07 17:39 38.04190 -9.72593 29618 ft 446 kts 230°
2026-05-07 17:39 38.02165 -9.75592 29923 ft 448 kts 230°
2026-05-07 17:39 38.00134 -9.78596 30225 ft 450 kts 230°
2026-05-07 17:40 37.98089 -9.81619 30524 ft 453 kts 230°
2026-05-07 17:40 37.96037 -9.84650 30823 ft 455 kts 230°
2026-05-07 17:40 37.93971 -9.87697 31130 ft 456 kts 230°
2026-05-07 17:40 37.91901 -9.90748 31497 ft 456 kts 230°
2026-05-07 17:41 37.89834 -9.93792 31883 ft 455 kts 230°
2026-05-07 17:41 37.87772 -9.96826 32256 ft 455 kts 230°
2026-05-07 17:41 37.85711 -9.99855 32614 ft 454 kts 230°
2026-05-07 17:41 37.83653 -10.02877 32963 ft 453 kts 230°
2026-05-07 17:42 37.81623 -10.05855 33302 ft 452 kts 230°
2026-05-07 17:42 37.79571 -10.08863 33628 ft 452 kts 229°
2026-05-07 17:42 37.77519 -10.11868 33955 ft 451 kts 229°
2026-05-07 17:42 37.75465 -10.14873 34247 ft 450 kts 229°
2026-05-07 17:43 37.73419 -10.17864 34539 ft 450 kts 229°
2026-05-07 17:43 37.71367 -10.20861 34819 ft 449 kts 229°
2026-05-07 17:43 37.66981 -10.27256 35004 ft 447 kts 229°
2026-05-07 17:44 37.63592 -10.32191 34999 ft 447 kts 229°
2026-05-07 17:44 37.59516 -10.38114 34998 ft 447 kts 229°